Flag for U.S.A. Weather past 2 weeks in Dover, Delaware, U.S.A.

Now
32 °F

Light snow. Ice fog.


Feels Like: 22 °F
Forecast: 21 / 38 °F
Wind: 15 mph from North

Location: Dover Air Force Base

Current Time: Mar 5, 2015 at 2:00:44 PM

Latest Report: Mar 5, 2015 at 1:03 PM


Visibility: 2 mi

Pressure: 30.13 "Hg

Humidity: 100%

Dew point: 32 °F

Location of DoverLocation

Historic Weather in Dover — Graph

°F

Dover temperature yesterday

Maximum temperature yesterday: 47 °F (at 1:58 PM)
Minimum temperature yesterday: 39 °F (at 12:58 AM)
Average temperature yesterday: 43 °F

Past Weeks' High & Low Weather Summary

 TemperatureHumidityPressure
High47 °F (Mar 4, 1:58 PM)100% (Feb 21, 4:03 PM)30.87 "Hg (Feb 21, 4:03 PM)
Low2 °F (Feb 20, 6:58 AM)35% (Feb 20, 2:58 AM)29.76 "Hg (Feb 18, 3:58 PM)
Average27 °F74%30.22 "Hg
* Reported Feb 18 1:58 PM — Mar 5 1:03 PM, Dover, Weather by CustomWeather, © 2015

Note: Actual official high and low records may vary slightly from our data, if they occured in-between our weather recording intervals... More about our weather records

Advertising

Dover weather history for previous 24 hours

 ConditionsComfort  
Time TempWeatherWind HumidityBarometerVisibility
1:03 PM
Thu, Mar 5
32 °FLight snow. Ice fog.15 mph100%30.13 "Hg2 mi
12:58 PM32 °FLight snow. Ice fog.16 mph100%30.14 "Hg2 mi
11:58 AMN/ALight snow.17 mphN/A30.16 "Hg1 mi
10:58 AM32 °FLight snow. Fog.9 mph100%30.14 "Hg2 mi
9:58 AM33 °FSleet. Mostly cloudy.12 mph100%30.12 "Hg7 mi
8:58 AM33 °FSleet. Fog.10 mph100%30.11 "Hg4 mi
7:58 AM34 °FLight rain. Mostly cloudy.12 mph100%30.09 "Hg8 mi
6:58 AM35 °FLight rain. More clouds than sun.10 mph100%30.05 "Hg7 mi
6:03 AM36 °FLight rain. Overcast.12 mph100%30.02 "Hg10 mi
5:58 AM36 °FLight rain. Mostly cloudy.13 mph100%30.03 "Hg10 mi
4:58 AM37 °FLight rain. Overcast.9 mph100%30.02 "Hg8 mi
3:58 AM37 °FLight rain. Overcast.9 mph100%29.97 "Hg10 mi
2:58 AM38 °FLight rain. Overcast.9 mph100%29.98 "Hg9 mi
2:03 AM39 °FLight rain. Fog.10 mph100%29.96 "Hg6 mi
1:58 AM39 °FLight rain. Fog.12 mph100%29.97 "Hg5 mi
12:58 AM41 °FLight rain. Fog.8 mph100%29.95 "Hg4 mi
11:58 PM
Wed, Mar 4
40 °FLight rain. Fog.9 mph100%29.94 "Hg6 mi
10:58 PM40 °FRain. Fog.7 mph100%29.94 "Hg2 mi
9:58 PM41 °FLight rain. Fog.5 mph100%29.94 "Hg2 mi
9:03 PM41 °FLight rain. Fog.3 mph100%29.92 "Hg1 mi
7:58 PM40 °FFog.No wind100%29.91 "Hg1 mi
6:58 PM41 °FLight rain. Fog.3 mph100%29.90 "Hg1 mi
6:03 PM43 °FLight rain. Fog.2 mph100%29.91 "Hg0 mi
5:58 PM42 °FLight rain. Fog.1 mph100%29.92 "Hg0 mi
5:03 PM45 °FLight rain. Fog.2 mph100%29.90 "Hg1 mi
3:58 PM46 °FFog.No wind100%29.85 "Hg5 mi
2:58 PM46 °FLight rain. Fog.6 mph100%29.85 "Hg5 mi
Weather by CustomWeather, © 2015

See weather overviewHow to use our weather pages